Regional Weather Roundup
Issued by NWS Albany, NY

Home | Current Version | Previous Version | Graphics & Text | Print | Product List | Glossary Off
Versions: 1 2 3 4 5 6 7 8 9 10 11 12 13 14 15 16 17 18 19 20 21 22 23 24 25 26 27 28 29 30 31 32 33 34 35 36 37 38 39 40 41 42 43 44 45 46 47 48 49 50

000
ASUS41 KALY 100410
RWRALY

NEW YORK STATE HOURLY WEATHER ROUNDUP
NATIONAL WEATHER SERVICE ALBANY NY
1100 PM EST TUE FEB 09 2016

NOTE: "FAIR" INDICATES FEW OR NO CLOUDS BELOW 12,000 FEET WITH NO
SIGNIFICANT WEATHER AND/OR NO OBSTRUCTIONS TO VISIBILITY.

NYZ032-033-038>043-046>054-057>066-NYZ062>081-100500-
EAST


CITY           SKY/WX    TMP DP  RH WIND       PRES   REMARKS
ALBANY         FLURRIES  28  23  81 CALM      29.58F
GLENS FALLS    LGT SNOW  25  22  88 CALM      29.57F FOG
POUGHKEEPSIE   CLOUDY    31  25  78 SE5       29.59F WCI  26
NEWBURGH       CLOUDY    30  27  86 CALM      29.59F
MONTGOMERY     CLOUDY    29  25  85 CALM      29.57F
WHITE PLAINS   CLOUDY    26  23  88 CALM      29.57F
ISLIP          MOCLDY    27  21  78 CALM      29.59F
NEW YORK CITY  CLOUDY    33  25  72 SE5       29.61F WCI  29
CENTRAL PARK   CLOUDY    34  26  72 CALM      29.62F
$$

NYZ005>009-017-018-044>046-055-056-100500-
CENTRAL


CITY           SKY/WX    TMP DP  RH WIND       PRES   REMARKS
FULTON         CLOUDY    31  28  89 VRB3      29.53F
SYRACUSE       CLOUDY    27  27 100 CALM      29.53F
ROME           LGT SNOW  27  25  92 SE5       29.55F FOG     WCI  22
ELMIRA         FOG       29  29 100 W3        29.53S VSB 1/4
BINGHAMTON     LGT SNOW  29  27  92 N8        29.49S FOG     WCI  21
MONTICELLO     CLOUDY    27  27 100 S3        29.53F
$$

NYZ026>034-041>043-100500-
NORTH


CITY           SKY/WX    TMP DP  RH WIND       PRES   REMARKS
WATERTOWN      CLOUDY    24  21  88 NE5       29.53F WCI  18
FORT DRUM      NOT AVBL
MASSENA        FLURRIES  20  15  81 NE7       29.57F WCI  11
SARANAC LAKE   CLOUDY    20  18  92 CALM      29.43F
PLATTSBURGH    CLOUDY    22  18  85 CALM      29.55F
$$

NYZ001>004-010>016-019>021-100500-
WEST


CITY           SKY/WX    TMP DP  RH WIND       PRES   REMARKS
NIAGARA FALLS  LGT SNOW  31  26  82 SW17G29   29.49F WCI  19
BUFFALO        LGT SNOW  30  27  88 SW17G28   29.51F FOG     WCI  18
DUNKIRK        LGT SNOW  29  25  85 SW20G28   29.56S FOG     WCI  16
JAMESTOWN      CLOUDY    25  19  80 SW14G22   29.52F WCI  13
WELLSVILLE     CLOUDY    29  19  66 SW10G16   29.50F WCI  20
ROCHESTER      MOCLDY    33  24  69 W13       29.52F WCI  24
PENN YAN       CLOUDY    34  24  67 SW13      29.52F WCI  25
$$

             KEY
       WCI = WIND CHILL INDEX
       VSB = VISIBILITY
       HX  = HEAT INDEX
$$



USA.gov is the U.S. government's official web portal to all federal, state and local government web resources and services.